Home > Weather > Delta > Past weeks

Flag for Canada Past Weather in Delta, British Columbia, Canada — Yesterday and Last 2 Weeks

Now
72 °F

Sunny.


Feels Like: 74 °F
Forecast: 61 / 82 °F
Wind: 7 mph from Northwest

Location: Vancouver International Airport

Current Time: Jul 28, 2016 at 9:12:19 PM

Latest Report: Jul 28, 2016 at 8:00 PM


Visibility: 30 mi

Pressure: 29.99 "Hg

Humidity: 73%

Dew Point: 63 °F

Location of DeltaLocation

Past Weather in Delta — Graph

°F

Delta Temperature Yesterday

Maximum temperature yesterday: 75 °F (at 3:00 PM)
Minimum temperature yesterday: 59 °F (at 5:00 AM)
Average temperature yesterday: 68 °F

High & Low Weather Summary for the Past Weeks

 TemperatureHumidityPressure
High75 °F (Jul 18, 4:00 PM)100% (Jul 17, 6:00 AM)30.26 "Hg (Jul 17, 6:00 AM)
Low57 °F (Jul 14, 2:00 AM)47% (Jul 22, 3:00 PM)29.90 "Hg (Jul 17, 5:00 PM)
Average66 °F76%30.08 "Hg
* Reported Jul 13 8:00 PM — Jul 28 8:00 PM, Delta, Weather by CustomWeather, © 2016

Note: Actual official high and low records may vary slightly from our data, if they occured in-between our weather recording intervals... More about our weather records

Advertising

Delta Weather History for the Previous 24 Hours

Scroll right to see more
 ConditionsComfort  
Time TempWeatherWind HumidityBarometerVisibility
8:00 PM
Thu, Jul 28
72 °FSunny.7 mph73%29.99 "Hg30 mi
7:00 PM73 °FSunny.13 mph69%30.01 "Hg30 mi
6:00 PM73 °FSunny.13 mph69%30.02 "Hg30 mi
5:00 PM73 °FSunny.13 mph69%30.04 "Hg30 mi
4:00 PM73 °FSunny.15 mph69%30.06 "Hg30 mi
3:00 PM75 °FSunny.15 mph69%30.07 "Hg30 mi
2:00 PM73 °FSunny.17 mph69%30.09 "Hg30 mi
1:00 PM72 °FSunny.17 mph69%30.10 "Hg30 mi
12:00 PM72 °FSunny.16 mph73%30.12 "Hg30 mi
11:00 AM70 °FSunny.17 mph73%30.13 "Hg30 mi
10:00 AM70 °FSunny.18 mph73%30.13 "Hg30 mi
9:00 AM68 °FPassing clouds.18 mph78%30.14 "Hg30 mi
8:00 AM66 °FSunny.16 mph83%30.13 "Hg30 mi
7:00 AM66 °FSunny.14 mph83%30.12 "Hg30 mi
6:00 AM64 °FClear.13 mph88%30.12 "Hg30 mi
5:00 AM64 °FClear.13 mph94%30.10 "Hg30 mi
4:00 AM64 °FClear.7 mph88%30.10 "Hg30 mi
3:00 AM64 °FClear.5 mph88%30.09 "Hg30 mi
2:00 AM63 °FClear.6 mph88%30.09 "Hg30 mi
1:00 AM68 °FPassing clouds.7 mph83%30.08 "Hg30 mi
12:00 AM68 °FPassing clouds.8 mph88%30.08 "Hg30 mi
11:00 PM
Wed, Jul 27
68 °FClear.9 mph83%30.08 "Hg30 mi
10:00 PM68 °FClear.2 mph78%30.07 "Hg30 mi
9:00 PM70 °FSunny.5 mph78%30.05 "Hg30 mi
Weather by CustomWeather, © 2016

See weather overviewHow to use our weather pages